FW1298 Statesboro GA US current weather conditions

sailwx.info

Wind from 304 at 2 knots gusting 6

Air temperature 22.2° C
Dewpoint 12.7° C

Last reported at 2019-Nov-11 21:05 UTC.
Time now 2019-Nov-11 21:25 UTC

Location: N 32°00' W 081°47'.
View on Google Maps.

See reports from other nearby stations

  
Tides and Currents Weather Stations Pressure Air Temp Water Temp Dewpoint Dewpoint Depression Visibility Wind Speed Wind Dir Waves Ship Positions
date/time (UTC)wind fromknots sea level pressurealtimeterstation pressurevisibilityair tempwater tempwave heightnotes
2019-Nov-11 21:10 250 1 gusting 4 22.2
2019-Nov-11 21:05 304 2 gusting 6 22.2
2019-Nov-11 21:00 245 1 gusting 6 22.2
2019-Nov-11 20:55 252 1 gusting 6 22.2
2019-Nov-11 20:50 290 2 gusting 7 22.2
2019-Nov-11 20:45 287 3 gusting 7 22.2
2019-Nov-11 20:40 233 3 gusting 8 22.2
2019-Nov-11 20:35 309 3 gusting 8 22.2
2019-Nov-11 20:30 230 2 gusting 7 22.2
2019-Nov-11 20:25 292 2 gusting 6 22.2
2019-Nov-11 20:20 225 3 gusting 7 22.2
2019-Nov-11 20:15 238 3 gusting 7 22.2
2019-Nov-11 20:10 288 3 gusting 8 22.2
2019-Nov-11 20:05 289 3 gusting 8 21.7
2019-Nov-11 20:00 305 2 gusting 6 22.2
2019-Nov-11 19:55 245 3 gusting 6 21.7
2019-Nov-11 19:50 266 3 gusting 6 21.7
2019-Nov-11 19:45 293 4 gusting 9 21.7
2019-Nov-11 19:40 277 4 gusting 9 21.7
2019-Nov-11 19:34 325 4 gusting 8 21.7
2019-Nov-11 19:30 238 3 gusting 8 21.7
2019-Nov-11 19:24 238 3 gusting 8 21.7
2019-Nov-11 19:19 254 5 gusting 8 21.7
2019-Nov-11 19:14 262 5 gusting 10 21.1
2019-Nov-11 19:09 286 2 gusting 10 21.7
2019-Nov-11 19:04 230 2 gusting 8 21.7
2019-Nov-11 18:59 271 3 gusting 9 21.7
2019-Nov-11 18:54 238 5 gusting 11 21.7
2019-Nov-11 18:49 261 5 gusting 11 21.1
2019-Nov-11 18:44 258 5 gusting 9 21.1
2019-Nov-11 18:39 279 5 gusting 9 21.1
2019-Nov-11 18:34 302 5 gusting 10 20.6
2019-Nov-11 18:29 312 5 gusting 10 21.1
2019-Nov-11 18:24 259 5 gusting 11 21.1
2019-Nov-11 18:19 284 4 gusting 11 21.1
2019-Nov-11 18:14 244 5 gusting 11 21.1
2019-Nov-11 18:09 270 6 gusting 9 20.6
2019-Nov-11 18:04 256 6 gusting 12 20.6
2019-Nov-11 17:59 287 6 gusting 12 20.6
2019-Nov-11 17:54 223 5 gusting 10 20.6
2019-Nov-11 17:49 297 4 gusting 8 20.6
2019-Nov-11 17:44 251 4 gusting 9 20.6
2019-Nov-11 17:39 144 4 gusting 9 20.6
2019-Nov-11 17:34 207 3 gusting 8 20.6
2019-Nov-11 17:29 200 3 gusting 9 20.6
2019-Nov-11 17:24 324 4 gusting 10 20.0
2019-Nov-11 17:19 244 3 gusting 10 20.0
2019-Nov-11 17:14 286 4 gusting 8 19.4
2019-Nov-11 17:09 315 5 gusting 9 19.4
2019-Nov-11 17:04 284 4 gusting 9 19.4
2019-Nov-11 16:59 269 5 gusting 8 18.9
2019-Nov-11 16:54 273 5 gusting 8 18.9
2019-Nov-11 16:49 252 4 gusting 9 18.9
2019-Nov-11 16:44 214 4 gusting 9 18.3
2019-Nov-11 16:39 250 3 gusting 8 18.9
2019-Nov-11 16:34 193 2 gusting 7 18.9
2019-Nov-11 16:29 250 3 gusting 8 18.3
2019-Nov-11 16:24 217 3 gusting 8 18.3
2019-Nov-11 16:19 165 4 gusting 8 18.3
2019-Nov-11 16:14 211 4 gusting 8 17.8
2019-Nov-11 16:09 234 5 gusting 8 17.8
2019-Nov-11 16:04 213 5 gusting 8 17.8
2019-Nov-11 15:59 183 3 gusting 7 17.8
2019-Nov-11 15:54 241 4 gusting 7 17.2
2019-Nov-11 15:49 240 4 gusting 7 17.2
2019-Nov-11 15:44 242 4 gusting 7 17.2
2019-Nov-11 15:39 253 5 gusting 8 17.2
2019-Nov-11 15:34 238 4 gusting 8 16.7
2019-Nov-11 15:29 215 3 gusting 7 16.7
2019-Nov-11 15:24 208 3 gusting 6 16.7
2019-Nov-11 15:19 229 4 gusting 7 16.7
2019-Nov-11 15:14 225 3 gusting 7 16.1
2019-Nov-11 15:09 205 2 gusting 6 16.7
2019-Nov-11 14:59 232 1 gusting 4 16.1
2019-Nov-11 14:54 236 1 gusting 3 15.6
2019-Nov-11 14:49 247 1 gusting 6 15.6
2019-Nov-11 14:44 250 2 gusting 6 15.6
2019-Nov-11 14:39 267 1 gusting 3 15.0
2019-Nov-11 14:34 267 1 gusting 4 15.0
2019-Nov-11 14:29 259 1 gusting 4 14.4
2019-Nov-11 14:24 257 0 gusting 2 14.4
2019-Nov-11 14:19 252 1 gusting 3 14.4
2019-Nov-11 14:14 257 1 gusting 5 13.9
2019-Nov-11 14:09 252 1 gusting 5 13.3
2019-Nov-11 14:04 263 1 gusting 3 13.3
2019-Nov-11 13:59 246 1 gusting 2 13.3
2019-Nov-11 13:54 246 1 gusting 2 12.8
2019-Nov-11 13:49 246 0 gusting 3 12.8
2019-Nov-11 13:44 246 1 gusting 3 12.2
2019-Nov-11 13:39 246 1 gusting 3 11.7
2019-Nov-11 13:34 208 0 gusting 3 11.7
2019-Nov-11 13:29 207 0 gusting 2 11.1
2019-Nov-11 13:24 207 0 gusting 3 10.6
2019-Nov-11 13:19 207 0 gusting 3 10.6
2019-Nov-11 13:14 196 10.6
2019-Nov-11 13:09 196 10.0
2019-Nov-11 13:04 186 10.0
2019-Nov-11 12:59 186 0 gusting 2 9.4
2019-Nov-11 12:54 116 0 gusting 1 9.4
2019-Nov-11 12:49 111 0 gusting 1 9.4
2019-Nov-11 12:44 111 1 gusting 3 9.4
2019-Nov-11 12:39 106 1 gusting 3 9.4
2019-Nov-11 12:34 221 2 gusting 3 9.4
2019-Nov-11 12:29 221 2 gusting 3 8.9
2019-Nov-11 12:24 221 2 gusting 3 8.9
2019-Nov-11 12:19 221 2 gusting 4 8.9
2019-Nov-11 12:14 221 3 gusting 4 8.9
2019-Nov-11 12:09 220 2 gusting 3 8.9
2019-Nov-11 12:04 221 2 gusting 3 8.9
2019-Nov-11 11:59 221 3 gusting 4 8.9
2019-Nov-11 11:54 220 3 gusting 4 8.9
2019-Nov-11 11:49 219 3 gusting 4 8.9
2019-Nov-11 11:44 221 3 gusting 4 8.9
2019-Nov-11 11:39 232 3 gusting 4 8.3
2019-Nov-11 11:34 232 2 gusting 4 8.3
2019-Nov-11 11:29 232 1 gusting 2 8.3
2019-Nov-11 11:24 232 1 gusting 2 8.3
2019-Nov-11 11:19 232 1 gusting 2 8.3
2019-Nov-11 11:14 232 1 gusting 2 8.3
2019-Nov-11 11:09 232 1 gusting 2 8.3
2019-Nov-11 11:04 232 1 gusting 2 8.3
2019-Nov-11 10:59 232 1 gusting 2 8.3
2019-Nov-11 10:54 232 1 gusting 2 8.3
2019-Nov-11 10:49 232 1 gusting 2 8.3
2019-Nov-11 10:44 232 1 gusting 2 8.3
2019-Nov-11 10:39 232 1 gusting 3 8.3
2019-Nov-11 10:34 232 2 gusting 3 8.3
2019-Nov-11 10:29 232 2 gusting 3 8.3
2019-Nov-11 10:24 232 2 gusting 3 8.3
2019-Nov-11 10:19 232 2 gusting 3 8.3
2019-Nov-11 10:14 232 2 gusting 3 8.9
2019-Nov-11 10:09 232 2 gusting 3 8.9
2019-Nov-11 10:04 241 2 gusting 3 8.9
2019-Nov-11 09:59 241 1 gusting 2 8.9
2019-Nov-11 09:54 241 1 gusting 3 8.9
2019-Nov-11 09:49 241 2 gusting 3 9.4
2019-Nov-11 09:44 241 2 gusting 4 9.4
2019-Nov-11 09:39 241 2 gusting 4 9.4
2019-Nov-11 09:34 241 2 gusting 4 9.4
2019-Nov-11 09:29 228 3 gusting 4 9.4
2019-Nov-11 09:24 228 4 gusting 5 9.4
2019-Nov-11 09:19 228 4 gusting 5 9.4
2019-Nov-11 09:14 230 3 gusting 5 9.4
2019-Nov-11 09:09 225 3 gusting 5 9.4
2019-Nov-11 09:04 216 4 gusting 6 9.4
2019-Nov-11 08:59 232 3 gusting 6 9.4
2019-Nov-11 08:54 216 4 gusting 6 9.4
2019-Nov-11 08:49 226 4 gusting 6 9.4
2019-Nov-11 08:44 228 4 gusting 6 9.4
2019-Nov-11 08:39 234 3 gusting 6 8.9
2019-Nov-11 08:34 232 3 gusting 6 8.9
2019-Nov-11 08:29 229 3 gusting 6 8.9
2019-Nov-11 08:24 221 3 gusting 5 8.9
2019-Nov-11 08:19 226 4 gusting 5 8.9
2019-Nov-11 08:14 222 3 gusting 5 8.9
2019-Nov-11 08:09 223 4 gusting 5 9.4
2019-Nov-11 08:04 215 4 gusting 5 9.4
2019-Nov-11 07:59 217 4 gusting 5 9.4
2019-Nov-11 07:54 219 4 gusting 6 9.4
2019-Nov-11 07:49 218 4 gusting 6 9.4
2019-Nov-11 07:44 214 4 gusting 6 9.4
2019-Nov-11 07:39 220 4 gusting 5 9.4
2019-Nov-11 07:34 219 4 gusting 6 9.4
2019-Nov-11 07:29 221 4 gusting 6 9.4
2019-Nov-11 07:24 223 3 gusting 6 9.4
2019-Nov-11 07:19 218 3 gusting 6 9.4
2019-Nov-11 07:14 223 3 gusting 6 9.4
2019-Nov-11 07:09 222 3 gusting 5 9.4
2019-Nov-11 07:04 217 3 gusting 5 9.4
2019-Nov-11 06:59 222 3 gusting 5 9.4
2019-Nov-11 06:54 221 3 gusting 5 9.4
2019-Nov-11 06:49 219 3 gusting 6 9.4
2019-Nov-11 06:44 219 3 gusting 6 9.4
2019-Nov-11 06:39 213 3 gusting 6 9.4
2019-Nov-11 06:34 213 3 gusting 5 9.4
2019-Nov-11 06:29 212 3 gusting 6 10.0
2019-Nov-11 06:24 219 4 gusting 6 10.0
2019-Nov-11 06:19 218 4 gusting 6 10.0
2019-Nov-11 06:14 210 4 gusting 6 10.0
2019-Nov-11 06:09 218 4 gusting 5 10.0
2019-Nov-11 06:04 225 4 gusting 5 10.0
2019-Nov-11 05:59 221 4 gusting 6 10.0
2019-Nov-11 05:54 215 4 gusting 6 10.0
2019-Nov-11 05:49 209 4 gusting 6 10.0
2019-Nov-11 05:44 217 4 gusting 6 10.0
2019-Nov-11 05:39 214 4 gusting 6 10.0
2019-Nov-11 05:34 209 4 gusting 6 10.0
2019-Nov-11 05:29 220 4 gusting 6 10.0
2019-Nov-11 05:24 221 4 gusting 6 10.0
2019-Nov-11 05:19 227 4 gusting 6 10.0
2019-Nov-11 05:14 216 4 gusting 6 10.0
2019-Nov-11 05:09 229 4 gusting 6 10.0
2019-Nov-11 05:04 212 4 gusting 6 10.0
2019-Nov-11 04:59 199 3 gusting 6 9.4
2019-Nov-11 04:54 199 3 gusting 5 10.0
2019-Nov-11 04:49 195 2 gusting 5 10.0
2019-Nov-11 04:44 182 2 gusting 4 10.0
2019-Nov-11 04:39 190 3 gusting 5 10.0
2019-Nov-11 04:34 191 3 gusting 5 10.0
2019-Nov-11 04:29 186 2 gusting 3 10.0
2019-Nov-11 04:24 186 2 gusting 3 10.6
2019-Nov-11 04:19 186 2 gusting 3 10.6
2019-Nov-11 04:14 186 2 gusting 3 10.6
2019-Nov-11 04:09 186 2 gusting 3 10.6
2019-Nov-11 04:04 186 2 gusting 4 10.6
2019-Nov-11 03:59 186 2 gusting 4 10.6
2019-Nov-11 03:54 209 3 gusting 4 11.1
2019-Nov-11 03:48 209 2 gusting 4 11.1
2019-Nov-11 03:44 223 2 gusting 3 10.6
2019-Nov-11 03:39 244 1 gusting 2 11.1
2019-Nov-11 03:34 244 1 gusting 2 11.1
2019-Nov-11 03:29 244 1 gusting 2 11.1
2019-Nov-11 03:23 244 1 gusting 2 11.7
2019-Nov-11 03:18 244 0 gusting 2 11.1
2019-Nov-11 03:13 248 11.1
2019-Nov-11 03:08 248 11.1
2019-Nov-11 03:03 248 11.1
2019-Nov-11 02:58 248 11.7
2019-Nov-11 02:53 248 11.7
2019-Nov-11 02:48 248 11.7
2019-Nov-11 02:43 248 11.7
2019-Nov-11 02:38 248 11.7
2019-Nov-11 02:33 248 11.7
2019-Nov-11 02:28 248 12.2
2019-Nov-11 02:23 248 12.2
2019-Nov-11 02:18 248 12.2
2019-Nov-11 02:13 248 12.2
2019-Nov-11 02:08 248 12.2
2019-Nov-11 02:03 248 12.2
2019-Nov-11 01:58 248 12.8
2019-Nov-11 01:53 248 12.8
2019-Nov-11 01:48 248 12.8
2019-Nov-11 01:43 248 12.2
2019-Nov-11 01:38 248 12.8
2019-Nov-11 01:33 248 12.2
2019-Nov-11 01:28 248 12.2
2019-Nov-11 01:23 248 12.8
2019-Nov-11 01:18 248 12.8
2019-Nov-11 01:13 248 12.8
2019-Nov-11 01:08 248 12.8
2019-Nov-11 01:03 248 13.3
2019-Nov-11 00:58 248 13.3
2019-Nov-11 00:53 248 13.3
2019-Nov-11 00:48 248 13.3
2019-Nov-11 00:43 248 13.3
2019-Nov-11 00:38 248 13.9
2019-Nov-11 00:33 248 13.9
2019-Nov-11 00:28 248 13.9
2019-Nov-11 00:23 248 14.4
2019-Nov-11 00:18 248 14.4
2019-Nov-11 00:13 248 13.9
2019-Nov-11 00:08 248 13.9
2019-Nov-11 00:03 248 14.4
2019-Nov-10 23:58 248 14.4
2019-Nov-10 23:53 248 14.4
2019-Nov-10 23:48 248 14.4
2019-Nov-10 23:43 248 14.4
2019-Nov-10 23:38 248 13.9
2019-Nov-10 23:33 250 13.9
2019-Nov-10 23:28 250 13.9
2019-Nov-10 23:23 250 13.9
2019-Nov-10 23:18 250 14.4
2019-Nov-10 23:13 250 15.0
2019-Nov-10 23:08 250 15.6
2019-Nov-10 23:03 250 15.6
2019-Nov-10 22:58 250 16.1
2019-Nov-10 22:53 250 16.1
2019-Nov-10 22:48 250 16.1
2019-Nov-10 22:43 250 16.7
2019-Nov-10 22:38 250 16.7
2019-Nov-10 22:33 250 0 gusting 1 16.7
2019-Nov-10 22:28 250 0 gusting 1 17.2
2019-Nov-10 22:23 250 0 gusting 1 17.2
2019-Nov-10 22:18 250 1 gusting 3 17.2
2019-Nov-10 22:13 250 1 gusting 3 17.8
2019-Nov-10 22:08 250 1 gusting 3 17.8
2019-Nov-10 22:03 250 1 gusting 3 17.8
2019-Nov-10 21:58 250 2 gusting 4 17.8
2019-Nov-10 21:53 246 2 gusting 6 17.8
2019-Nov-10 21:48 249 1 gusting 6 18.3
2019-Nov-10 21:43 211 1 gusting 3 18.3
2019-Nov-10 21:38 205 2 gusting 5 18.3
2019-Nov-10 21:33 213 3 gusting 5 17.8
2019-Nov-10 21:28 229 3 gusting 6 18.3
2019-Nov-10 21:23 219 2 gusting 6 18.3
2019-Nov-10 21:18 225 2 gusting 5 18.3
2019-Nov-10 21:13 223 2 gusting 5 18.3
2019-Nov-10 21:08 214 2 gusting 6 18.3
2019-Nov-10 21:03 196 2 gusting 6 18.3
2019-Nov-10 20:58 225 2 gusting 6 18.3
2019-Nov-10 20:53 247 2 gusting 6 18.3
2019-Nov-10 20:48 225 1 gusting 5 18.3
2019-Nov-10 20:43 248 4 gusting 8 18.3
2019-Nov-10 20:38 232 4 gusting 8 18.3
2019-Nov-10 20:33 227 2 gusting 6 18.3
2019-Nov-10 20:28 213 1 gusting 4 18.3
2019-Nov-10 20:23 241 2 gusting 6 18.3
2019-Nov-10 20:18 173 2 gusting 6 17.8
2019-Nov-10 20:13 186 2 gusting 6 18.3
2019-Nov-10 20:08 211 1 gusting 6 18.3
2019-Nov-10 20:03 202 0 gusting 6 18.9
2019-Nov-10 19:58 227 1 gusting 6 18.3
2019-Nov-10 19:53 225 2 gusting 6 18.3
2019-Nov-10 19:48 185 2 gusting 6 18.3
2019-Nov-10 19:43 197 1 gusting 6 18.3
2019-Nov-10 19:38 257 2 gusting 6 17.8
2019-Nov-10 19:33 246 2 gusting 6 18.3
2019-Nov-10 19:28 202 2 gusting 7 17.8
2019-Nov-10 19:23 149 2 gusting 7 18.3
2019-Nov-10 19:18 166 1 gusting 7 18.3
2019-Nov-10 19:13 156 0 gusting 5 18.3
2019-Nov-10 19:08 269 0 gusting 5 18.3
2019-Nov-10 19:03 240 1 gusting 5 18.3
2019-Nov-10 18:58 217 0 gusting 5 17.8
2019-Nov-10 18:53 239 17.8
2019-Nov-10 18:48 239 0 gusting 3 17.2
2019-Nov-10 18:43 239 1 gusting 3 17.2
2019-Nov-10 18:38 205 2 gusting 5 17.2
2019-Nov-10 18:33 182 2 gusting 5 16.7
2019-Nov-10 18:28 211 0 gusting 4 17.8
2019-Nov-10 18:23 337 17.8
2019-Nov-10 18:18 336 17.8
2019-Nov-10 18:13 179 0 gusting 3 17.2
2019-Nov-10 18:08 112 1 gusting 5 17.2
2019-Nov-10 18:03 101 1 gusting 5 17.2
2019-Nov-10 17:58 140 0 gusting 5 17.2
2019-Nov-10 17:53 098 0 gusting 5 17.2
2019-Nov-10 17:48 005 0 gusting 3 16.7
2019-Nov-10 17:43 117 0 gusting 3 16.1
2019-Nov-10 17:38 044 1 gusting 4 15.6
2019-Nov-10 17:33 094 2 gusting 4 15.6
2019-Nov-10 17:28 022 1 gusting 4 15.6
2019-Nov-10 17:23 011 0 gusting 4 16.1
2019-Nov-10 17:18 119 0 gusting 3 16.1
2019-Nov-10 17:13 080 0 gusting 3 16.1
2019-Nov-10 17:08 078 0 gusting 3 15.6
2019-Nov-10 17:03 065 1 gusting 6 15.6
2019-Nov-10 16:58 061 1 gusting 6 15.6
2019-Nov-10 16:53 074 0 gusting 4 15.6
2019-Nov-10 16:48 161 0 gusting 3 15.0
2019-Nov-10 16:43 065 0 gusting 4 15.0
2019-Nov-10 16:38 069 1 gusting 4 14.4
2019-Nov-10 16:33 065 0 gusting 4 14.4
2019-Nov-10 16:28 319 1 gusting 4 14.4
2019-Nov-10 16:23 051 2 gusting 6 13.9
2019-Nov-10 16:18 038 2 gusting 6 13.9
2019-Nov-10 16:13 024 2 gusting 6 13.3
2019-Nov-10 16:08 070 1 gusting 6 13.3
2019-Nov-10 16:03 024 1 gusting 6 12.8
2019-Nov-10 15:58 038 2 gusting 6 12.8
2019-Nov-10 15:53 034 3 gusting 6 12.8
2019-Nov-10 15:48 015 3 gusting 6 12.8
2019-Nov-10 15:43 050 2 gusting 6 12.8
2019-Nov-10 15:38 076 2 gusting 6 12.8
2019-Nov-10 15:33 051 2 gusting 5 12.8
2019-Nov-10 15:28 083 2 gusting 5 12.8
2019-Nov-10 15:23 087 1 gusting 6 12.8
2019-Nov-10 15:18 055 1 gusting 6 12.8
2019-Nov-10 15:13 075 1 gusting 4 12.2
2019-Nov-10 15:08 070 1 gusting 5 12.2
2019-Nov-10 15:03 072 1 gusting 5 11.7
2019-Nov-10 14:58 057 1 gusting 4 11.7
2019-Nov-10 14:53 057 2 gusting 6 11.7
2019-Nov-10 14:48 055 1 gusting 6 11.7
2019-Nov-10 14:43 080 0 gusting 3 11.7
2019-Nov-10 14:38 082 1 gusting 3 11.1
2019-Nov-10 14:33 071 1 gusting 3 10.6
2019-Nov-10 14:28 074 1 gusting 3 10.6
2019-Nov-10 14:23 073 1 gusting 4 10.0
2019-Nov-10 14:18 073 1 gusting 4 10.0
2019-Nov-10 14:13 078 1 gusting 3 9.4
2019-Nov-10 14:08 069 1 gusting 3 8.9
2019-Nov-10 14:03 066 2 gusting 3 8.3
2019-Nov-10 13:58 066 2 gusting 4 8.3
2019-Nov-10 13:53 062 2 gusting 4 8.3
2019-Nov-10 13:48 061 1 gusting 3 8.3
2019-Nov-10 13:43 062 0 gusting 3 7.8
2019-Nov-10 13:38 042 0 gusting 1 7.8
2019-Nov-10 13:33 042 0 gusting 2 7.2
2019-Nov-10 13:28 042 0 gusting 2 6.7
2019-Nov-10 13:23 042 1 gusting 3 6.7
2019-Nov-10 13:18 042 2 gusting 4 6.1
2019-Nov-10 13:13 040 1 gusting 4 6.1
2019-Nov-10 13:08 113 0 gusting 1 6.1
2019-Nov-10 13:03 113 6.1
2019-Nov-10 12:58 113 5.6
2019-Nov-10 12:53 113 5.0
2019-Nov-10 12:48 113 4.4
2019-Nov-10 12:43 264 4.4
2019-Nov-10 12:38 017 3.9
2019-Nov-10 12:33 017 3.9
2019-Nov-10 12:28 017 3.9
2019-Nov-10 12:23 017 3.3
2019-Nov-10 12:18 017 3.3
2019-Nov-10 12:13 017 3.3
2019-Nov-10 12:08 017 3.3
2019-Nov-10 12:03 017 3.3
2019-Nov-10 11:58 017 2.8
2019-Nov-10 11:53 017 2.8
2019-Nov-10 11:48 017 2.8
2019-Nov-10 11:43 017 2.8
2019-Nov-10 11:38 017 2.8
2019-Nov-10 11:33 017 3.3
2019-Nov-10 11:28 017 3.3
2019-Nov-10 11:23 017 3.3
2019-Nov-10 11:18 017 3.3
2019-Nov-10 11:13 017 3.3
2019-Nov-10 11:07 017 3.3
2019-Nov-10 11:02 017 3.3
2019-Nov-10 10:57 017 3.3
2019-Nov-10 10:52 017 3.3
2019-Nov-10 10:47 017 3.3
2019-Nov-10 10:42 017 3.3
2019-Nov-10 10:37 017 3.3
2019-Nov-10 10:32 017 3.3
2019-Nov-10 10:27 017 3.3
2019-Nov-10 10:22 017 3.3
2019-Nov-10 10:17 017 3.3
2019-Nov-10 10:12 017 3.3
2019-Nov-10 10:07 017 3.3
2019-Nov-10 10:02 017 3.3
2019-Nov-10 09:58 017 3.3
2019-Nov-10 09:53 017 3.3
2019-Nov-10 09:47 017 3.9
2019-Nov-10 09:42 017 3.9
2019-Nov-10 09:37 017 3.9
2019-Nov-10 09:32 017 3.9
2019-Nov-10 09:27 017 3.9
2019-Nov-10 09:22 017 3.9
2019-Nov-10 09:17 017 3.9
2019-Nov-10 09:12 017 3.9
2019-Nov-10 09:07 017 3.9
2019-Nov-10 09:02 017 3.9
2019-Nov-10 08:57 017 3.9
2019-Nov-10 08:52 017 3.9
2019-Nov-10 08:47 017 3.9
2019-Nov-10 08:42 017 3.9
2019-Nov-10 08:37 017 3.9
2019-Nov-10 08:32 017 3.9
2019-Nov-10 08:27 017 3.9
2019-Nov-10 08:22 017 3.9
2019-Nov-10 08:17 017 3.9
2019-Nov-10 08:12 017 3.9
2019-Nov-10 08:07 017 3.9
2019-Nov-10 08:02 017 4.4
2019-Nov-10 07:57 017 4.4
2019-Nov-10 07:52 017 4.4
2019-Nov-10 07:47 017 4.4
2019-Nov-10 07:42 017 4.4
2019-Nov-10 07:37 017 0 gusting 2 4.4
2019-Nov-10 07:32 017 0 gusting 2 4.4
2019-Nov-10 07:27 017 1 gusting 2 5.0
2019-Nov-10 07:22 017 1 gusting 3 5.0
2019-Nov-10 07:17 017 1 gusting 3 5.0
2019-Nov-10 07:12 016 1 gusting 3 5.0
2019-Nov-10 07:07 016 1 gusting 3 5.0
2019-Nov-10 07:02 015 1 gusting 3 5.0
2019-Nov-10 06:57 015 1 gusting 3 5.0
2019-Nov-10 06:52 015 2 gusting 5 5.0
2019-Nov-10 06:47 015 2 gusting 5 5.0
2019-Nov-10 06:42 017 2 gusting 4 5.0
2019-Nov-10 06:37 019 2 gusting 4 5.0
2019-Nov-10 06:33 015 2 gusting 4 5.6
2019-Nov-10 06:27 036 2 gusting 4 5.6
2019-Nov-10 06:22 017 2 gusting 3 5.6
2019-Nov-10 06:17 017 1 gusting 3 5.0
2019-Nov-10 06:12 017 1 gusting 2 5.0
2019-Nov-10 06:07 017 1 gusting 3 5.6
2019-Nov-10 06:02 017 1 gusting 3 5.6
2019-Nov-10 05:57 017 0 gusting 2 5.6
2019-Nov-10 05:52 017 5.6
2019-Nov-10 05:47 017 5.6
2019-Nov-10 05:42 017 5.6
2019-Nov-10 05:37 017 6.1
2019-Nov-10 05:32 017 6.1
2019-Nov-10 05:27 017 0 gusting 2 6.1
2019-Nov-10 05:22 017 0 gusting 2 6.1
2019-Nov-10 05:17 017 0 gusting 2 6.1
2019-Nov-10 05:12 017 6.1
2019-Nov-10 05:07 017 0 gusting 2 6.1
2019-Nov-10 05:02 017 1 gusting 3 6.1
2019-Nov-10 04:57 017 1 gusting 3 6.1
2019-Nov-10 04:52 018 1 gusting 3 6.1
2019-Nov-10 04:47 018 2 gusting 4 6.1
2019-Nov-10 04:42 6.1
2019-Nov-10 04:37 017 1 gusting 4 6.1
2019-Nov-10 04:32 032 6.1
2019-Nov-10 04:27 032 6.1
2019-Nov-10 04:22 032 6.1
2019-Nov-10 04:17 032 6.1
2019-Nov-10 04:12 032 6.1
2019-Nov-10 04:07 032 6.1
2019-Nov-10 04:02 032 6.1
2019-Nov-10 03:57 032 6.1
2019-Nov-10 03:52 032 6.1
2019-Nov-10 03:47 032 6.7
2019-Nov-10 03:42 032 6.7
2019-Nov-10 03:37 032 6.7
2019-Nov-10 03:32 032 6.7
2019-Nov-10 03:27 032 6.7
2019-Nov-10 03:22 032 6.7
2019-Nov-10 03:17 032 6.7
2019-Nov-10 03:12 032 6.7
2019-Nov-10 03:07 032 6.7
2019-Nov-10 03:02 032 7.2
2019-Nov-10 02:57 032 7.2
2019-Nov-10 02:52 032 6.7
2019-Nov-10 02:47 032 6.7
2019-Nov-10 02:42 032 7.2
2019-Nov-10 02:37 032 7.2
2019-Nov-10 02:32 032 7.2
2019-Nov-10 02:27 032 7.2
2019-Nov-10 02:22 032 7.2
2019-Nov-10 02:17 032 7.8
2019-Nov-10 02:12 032 7.8
2019-Nov-10 02:07 032 7.8
2019-Nov-10 02:02 032 7.8
2019-Nov-10 01:57 032 7.8
2019-Nov-10 01:52 032 7.8
2019-Nov-10 01:47 032 7.8
2019-Nov-10 01:42 032 8.3
2019-Nov-10 01:37 032 8.3
2019-Nov-10 01:32 032 8.3
2019-Nov-10 01:27 032 8.3
2019-Nov-10 01:22 032 8.3
2019-Nov-10 01:17 032 8.3
2019-Nov-10 01:12 032 8.3
2019-Nov-10 01:07 032 0 gusting 2 8.3
2019-Nov-10 01:02 032 0 gusting 1 8.3
2019-Nov-10 00:57 032 8.3
2019-Nov-10 00:52 032 8.9
2019-Nov-10 00:47 032 0 gusting 2 8.9
2019-Nov-10 00:42 032 0 gusting 2 8.9
2019-Nov-10 00:37 032 8.9
2019-Nov-10 00:32 032 8.9
2019-Nov-10 00:27 032 9.4
2019-Nov-10 00:22 032 9.4
2019-Nov-10 00:17 032 9.4
2019-Nov-10 00:12 032 9.4
2019-Nov-10 00:07 032 9.4
2019-Nov-10 00:02 032 9.4
2019-Nov-09 23:57 032 0 gusting 1 10.0
2019-Nov-09 23:52 032 0 gusting 1 10.0
2019-Nov-09 23:47 032 0 gusting 2 10.0
2019-Nov-09 23:42 032 0 gusting 2 10.0
2019-Nov-09 23:37 032 0 gusting 2 10.0
2019-Nov-09 23:32 032 0 gusting 2 10.0
2019-Nov-09 23:27 032 1 gusting 2 10.6
2019-Nov-09 23:22 032 1 gusting 2 10.6
2019-Nov-09 23:17 032 1 gusting 2 10.6
2019-Nov-09 23:12 032 0 gusting 2 10.6
2019-Nov-09 23:07 032 1 gusting 2 10.6
2019-Nov-09 23:02 032 1 gusting 2 10.6
2019-Nov-09 22:57 032 1 gusting 3 10.6
2019-Nov-09 22:52 032 2 gusting 4 11.1
2019-Nov-09 22:47 022 2 gusting 4 11.1
2019-Nov-09 22:42 033 2 gusting 3 11.1
2019-Nov-09 22:37 033 3 gusting 5 11.1
2019-Nov-09 22:32 033 3 gusting 5 11.1
2019-Nov-09 22:27 026 2 gusting 5 11.7
2019-Nov-09 22:22 032 2 gusting 5 11.7
2019-Nov-09 22:17 024 3 gusting 7 11.7
2019-Nov-09 22:12 040 3 gusting 7 11.7
2019-Nov-09 22:07 038 2 gusting 6 12.2
2019-Nov-09 22:02 038 3 gusting 6 12.2
2019-Nov-09 21:57 024 4 gusting 6 12.2
2019-Nov-09 21:52 035 3 gusting 6 12.2
2019-Nov-09 21:47 030 3 gusting 6 12.2
2019-Nov-09 21:42 040 3 gusting 6 12.8
2019-Nov-09 21:37 026 4 gusting 6 12.2
2019-Nov-09 21:32 036 4 gusting 7 12.8
2019-Nov-09 21:27 055 4 gusting 7 12.2
2019-Nov-09 21:22 061 5 gusting 8 12.8
2019-Nov-09 21:17 012 4 gusting 8 12.8
2019-Nov-09 21:12 017 4 gusting 8 12.8
2019-Nov-09 21:07 020 4 gusting 7 12.8
2019-Nov-09 21:02 055 3 gusting 7 12.8